Lid_Strength_Index
2 2 2 2 2 2 2 2 1 1 1 1 1 1 1 2 1 1 1 2 2 2
2 2 2 2 2 2 2 1 1 1 2 1 1 1 1 1 1 1 1 2 2 1
1 2 1 1 1 2 2 2 2 1 2 1 1 1 1 1 2 2 2 1 1 1
2 2 1 1 1 2 2 1 2 1 1 1 1 1 1 1 1 1 1 1 2 2
2 2 2 1 1 2 2 2 1 1 1 1 1 1 1 1 1 1 2 2 2 1
2 2 2 1 2 1 2 2 2 1 1 1 1 1 1 1 1 1 1 2 2 1
2 2 2 2 1 1 1 2 2 1 1 1 1 1 1 1 1 1 1 1 1 1
2 2 2 2 1 1 1 1 1 2 1 1 1 1 1 1 1 1 1 1 1 1
3 2 2 3 2 1 2 1 2 3 3 3 3 6 5 2 1 1 1 2 1 2
3 2 2 2 2 3 3 3 3 3 4 5 6 7 6 4 1 1 2 2 2 2
2 2 2 2 2 3 2 2 3 3 5 7 9 9 7 5 1 2 2 2 3 3
2 3 2 2 2 2 3 2 2 3 5 6 8 9 6 2 2 3 3 3 4 2
2 2 3 2 2 2 2 3 1 2 4 6 8 11 9 4 2 4 4 4 4 5
2 2 2 2 2 2 2 2 3 2 3 3 7 9 11 8 3 3 4 5 7 6